Flag for U.S.A. Weather past 2 weeks in Stillwater, Minnesota, U.S.A.

Now
22 °F

More clouds than sun.


Feels Like: 14 °F
Forecast: 7 / 22 °F
Wind: 6 mph from North

Location: St. Paul Downtown Holman Field

Current Time: Dec 28, 2014 at 2:55:28 PM

Latest Report: Dec 28, 2014 at 1:53 PM


Visibility: 10 mi

Pressure: 30.23 "Hg

Humidity: 75%

Dew point: 15 °F

Location of StillwaterLocation

Historic Weather in Stillwater — Graph

°F

Stillwater temperature yesterday

Maximum temperature yesterday: 28 °F (at 12:53 AM)
Minimum temperature yesterday: 11 °F (at 10:53 PM)
Average temperature yesterday: 21 °F

Past Weeks' High & Low Weather Summary

 TemperatureHumidityPressure
High48 °F (Dec 14, 2:53 PM)100% (Dec 13, 9:53 PM)30.39 "Hg (Dec 13, 9:53 PM)
Low9 °F (Dec 28, 7:53 AM)62% (Dec 27, 4:53 PM)29.61 "Hg (Dec 24, 9:02 PM)
Average30 °F87%29.99 "Hg
* Reported Dec 13 1:53 PM — Dec 28 1:53 PM, Stillwater, Weather by CustomWeather, © 2014

Note: Actual official high and low records may vary slightly from our data, if they occured in-between our weather recording intervals... More about our weather records

Advertising

Stillwater weather history for previous 24 hours

 ConditionsComfort  
Time TempWeatherWind HumidityBarometerVisibility
1:53 PM
Dec 28
22 °FMore clouds than sun.6 mph75%30.23 "Hg10 mi
12:53 PM22 °FOvercast.5 mph75%30.22 "Hg10 mi
11:53 AM20 °FOvercast.No wind74%30.22 "Hg9 mi
10:53 AM16 °FOvercast.No wind84%30.23 "Hg7 mi
9:53 AM13 °FPartly sunny.No wind92%30.22 "Hg7 mi
9:00 AM11 °FOvercast.No wind88%30.16 "Hg7 mi
7:53 AM9 °FScattered clouds.No wind88%30.18 "Hg7 mi
6:53 AM10 °FClear.No wind84%30.16 "Hg9 mi
5:53 AM10 °FClear.No wind88%30.15 "Hg10 mi
4:53 AM10 °FClear.No wind84%30.15 "Hg10 mi
3:53 AM12 °FClear.No wind80%30.15 "Hg10 mi
2:53 AM13 °FOvercast.No wind81%30.15 "Hg10 mi
1:53 AM13 °FOvercast.3 mph81%30.14 "Hg10 mi
12:53 AM12 °FOvercast.No wind80%30.14 "Hg10 mi
11:53 PM
Dec 27
11 °FPassing clouds.No wind84%30.16 "Hg10 mi
10:53 PM11 °FClear.5 mph81%30.16 "Hg10 mi
9:53 PM12 °FClear.No wind77%30.17 "Hg10 mi
8:53 PM14 °FClear.No wind71%30.16 "Hg10 mi
7:53 PM13 °FClear.No wind74%30.17 "Hg10 mi
6:53 PM13 °FClear.No wind74%30.17 "Hg10 mi
5:53 PM16 °FClear.5 mph74%30.16 "Hg10 mi
4:53 PM21 °FClear.8 mph62%30.14 "Hg10 mi
3:53 PM23 °FSunny.9 mph68%30.13 "Hg10 mi
2:53 PM25 °FSunny.12 mph66%30.11 "Hg10 mi
Weather by CustomWeather, © 2014

See weather overviewHow to use our weather pages